[[{"header":{"parameterUnit":"m.s-1","parameterCategory":1,"la1":30.2991,"la2":30.254,"lo1":-89.0895,"lo2":-89.0444,"dy":0.0017,"dx":0.0017,"nx":28,"ny":28,"refTime":"2025-06-17T03:00:00:Z","depth":0,"parameterNumber":2,"parameterNumberName":"U-component_of_WINDS"},"data":[0,0,0,0,0,0,0,0,0,0,0,0,0,0,0,0,0,0,0,0,0,0,0,0,0,0,0,0,0,0,0,0,0,0,0,0,0,0,0,0,0,0,0,0,0,0,0,0,0,0,0,0,0,0,0,0,0,0,0.8908,0.8908,0,0.8983,0.8984,0.8984,0.9007,0.9007,0.9006,0.9006,0.908,0.9082,0.9084,0,0,0,0,0,0,0,0,0,0,0,0,0,0.8779,0.8781,0.8908,0.8909,0.8909,0.8983,0.8984,0.8985,0.9007,0.9007,0.9006,0.9006,0.9079,0.9082,0.9084,0,0,0,0,0,0,0,0,0,0,0,0,0,0.8842,0.8782,0.8907,0.893,0.8932,0.8982,0.8984,0.8985,0.9007,0.9007,0.9006,0.9005,0.9078,0.9081,0.9085,0.9117,0,0,0.9095,0.9097,0,0,0,0,0,0,0,0,0.8839,0.8847,0.8925,0.8928,0.8931,0.8985,0.8965,0.9029,0.9007,0.8979,0.9006,0.9005,0.9048,0.9054,0.9069,0.9121,0.9124,0.9096,0.9098,0.9099,0.91,0,0,0,0,0,0,0,0.8834,0.8844,0.8937,0.8926,0.893,0.8934,0.8943,0.8978,0.9016,0.8981,0.8983,0.8992,0.905,0.9066,0.9071,0.9125,0.9096,0.9099,0.9101,0.9102,0.9205,0.9206,0,0,0,0,0,0,0.8827,0.884,0.8935,0.894,0.8883,0.8937,0.8946,0.8968,0.9015,0.9022,0.8992,0.8992,0.906,0.9067,0.9074,0.9115,0.9099,0.9103,0.9105,0.9205,0.9205,0.9206,0,0,0,0,0,0,0.8824,0.8835,0.8932,0.889,0.8903,0.894,0.8964,0.897,0.8986,0.9024,0.903,0.9002,0.906,0.9069,0.9106,0.9118,0.9104,0.9107,0.9204,0.9205,0.9206,0.9197,0,0,0,0,0,0,0.882,0.8834,0.8848,0.8891,0.8905,0.8964,0.8965,0.8972,0.8993,0.8994,0.9035,0.9041,0.9061,0.9101,0.911,0.9122,0.911,0.9203,0.9204,0.9205,0.9196,0.9197,0.9198,0,0,0,0,0,0.8815,0.8842,0.8848,0.886,0.8924,0.8965,0.8973,0.8996,0.8994,0.9007,0.9031,0.904,0.9115,0.9105,0.9115,0.9128,0.9202,0.9204,0.9205,0.9196,0.9197,0.9198,0,0,0,0,0,0,0.8799,0.8848,0.8856,0.8897,0.8927,0.8969,0.8987,0.8997,0.9027,0.9027,0.9053,0.9062,0.9097,0.9116,0.9104,0.9161,0.9159,0.9162,0.9148,0.9149,0.915,0.9145,0.9113,0,0,0,0,0,0.88,0.8831,0.8871,0.8904,0.8918,0.895,0.8969,0.8984,0.9015,0.9027,0.9054,0.9083,0.9113,0.9132,0.9162,0.9199,0.9207,0.9213,0.9213,0.9214,0.9217,0.9236,0.9239,0.9211,0.9211,0.9211,0,0,0.8803,0.8833,0.8851,0.8901,0.8926,0.8956,0.896,0.8992,0.9014,0.9032,0.9069,0.9089,0.9123,0.9159,0.9177,0.9177,0.9226,0.9216,0.9216,0.9219,0.9238,0.9241,0.9243,0.9212,0.9212,0.9212,0,0,0.8823,0.8849,0.8879,0.8903,0.8941,0.8962,0.8968,0.9009,0.9023,0.9061,0.9074,0.91,0.9151,0.9175,0.9193,0.922,0.9229,0.9229,0.9234,0.9253,0.9255,0.9257,0.9266,0.9269,0.9231,0.9231,0.9231,0,0.8821,0.8868,0.8892,0.8923,0.8944,0.8962,0.8992,0.9014,0.9058,0.9072,0.9071,0.9135,0.9159,0.9201,0.9208,0.9222,0.923,0.9225,0.9253,0.9255,0.9258,0.9266,0.927,0.9231,0.9231,0.9231,0.9231,0,0.8863,0.8895,0.8914,0.8958,0.8981,0.9011,0.9038,0.9058,0.9071,0.9091,0.9127,0.9157,0.9192,0.9203,0.9216,0.9246,0.9245,0.9248,0.9246,0.926,0.9268,0.9272,0.9231,0.9231,0.9231,0.9231,0,0,0.8876,0.8932,0.8939,0.8958,0.9,0.9025,0.9054,0.909,0.9106,0.9136,0.916,0.9203,0.9205,0.9226,0.9241,0.9257,0.9276,0.9259,0.926,0.926,0.931,0.9308,0.9311,0.9281,0.9282,0.9283,0.9307,0,0.8901,0.8957,0.8979,0.9023,0.9052,0.9069,0.9094,0.9122,0.9141,0.9167,0.9187,0.9217,0.9218,0.9231,0.9248,0.927,0.9286,0.9268,0.9303,0.9304,0.9295,0.9316,0.9314,0.9335,0.9311,0.9311,0.9312,0,0.8939,0.8969,0.9017,0.9054,0.9067,0.909,0.9123,0.9149,0.9179,0.9192,0.9214,0.9228,0.9258,0.9253,0.9293,0.9281,0.9296,0.9309,0.931,0.9315,0.9309,0.932,0.9343,0.9346,0.9317,0.9317,0.9316,0,0.8942,0.8995,0.9031,0.9047,0.9091,0.9107,0.9126,0.9156,0.9175,0.9204,0.9217,0.9248,0.9265,0.9288,0.9309,0.9304,0.9347,0.9344,0.9357,0.9357,0.9366,0.9365,0.9391,0.9376,0.9376,0.9376,0.9375,0,0.8968,0.8996,0.9033,0.9054,0.9086,0.911,0.914,0.9159,0.9186,0.921,0.9226,0.9248,0.9274,0.9299,0.9316,0.9346,0.9354,0.9364,0.9368,0.9362,0.9361,0.9373,0.9372,0.9376,0.9376,0.9376,0.9376,0,0.8978,0.9004,0.9043,0.9082,0.9092,0.9114,0.9146,0.9167,0.9186,0.9216,0.9225,0.9254,0.9284,0.9307,0.9346,0.9357,0.9389,0.9393,0.9379,0.9381,0.9392,0.9391,0.9427,0.9432,0.9413,0.9414,0.9414,0,0.8993,0.9016,0.9057,0.9075,0.9094,0.9123,0.9143,0.9166,0.9186,0.9222,0.9238,0.9269,0.9296,0.9342,0.9366,0.9396,0.9401,0.9411,0.9405,0.9399,0.94,0.9399,0.9401,0.9412,0.9412,0.9412,0.9412,0,0.9017,0.9028,0.9057,0.909,0.9114,0.9141,0.9168,0.9181,0.9209,0.923,0.9262,0.9282,0.9322,0.9352,0.9384,0.9402,0.9411,0.9414,0.9418,0.9413,0.9404,0.9409,0.9381,0.9413,0.9413,0.9413,0.9413,0.9413,0.903,0.905,0.9082,0.9113,0.9136,0.916,0.9182,0.9203,0.923,0.9265,0.9277,0.9309,0.9337,0.9381,0.9399,0.9423,0.9423,0.943,0.9431,0.9433,0.9432,0.94,0.9429,0.9429,0.9429,0.9429,0.9429,0,0.9054,0.9075,0.9104,0.9141,0.9165,0.9173,0.9203,0.9222,0.925,0.9277,0.9302,0.9337,0.9366,0.9392,0.9422,0.9437,0.9442,0.9444,0.9443,0.9446,0.943,0.9423,0.9439,0.9439,0.9439,0.9439,0.9439,0.9439,0.9069,0.9103,0.9118,0.9163,0.9183,0.9216,0.9232,0.9254,0.9275,0.9314,0.9339,0.9356,0.9381,0.9413,0.9439,0.9446,0.9456,0.9457,0.9465,0.9449,0.9448,0.9446,0.944,0.9459,0.9459,0.9479,0.9479,0.9479]},{"header":{"parameterUnit":"m.s-1","parameterCategory":1,"la1":30.2991,"la2":30.254,"lo1":-89.0895,"lo2":-89.0444,"dy":0.0017,"dx":0.0017,"nx":28,"ny":28,"refTime":"2025-06-17T03:00:00:Z","depth":0,"parameterNumber":3,"parameterNumberName":"V-component_of_WINDS"},"data":[0,0,0,0,0,0,0,0,0,0,0,0,0,0,0,0,0,0,0,0,0,0,0,0,0,0,0,0,0,0,0,0,0,0,0,0,0,0,0,0,0,0,0,0,0,0,0,0,0,0,0,0,0,0,0,0,0,0,5.1476,5.1477,0,5.1535,5.1536,5.1537,5.1511,5.1509,5.1508,5.1507,5.1565,5.1568,5.1571,0,0,0,0,0,0,0,0,0,0,0,0,0,5.1341,5.1343,5.1476,5.1477,5.1478,5.1535,5.1536,5.1537,5.1511,5.1509,5.1508,5.1506,5.1564,5.1568,5.1571,0,0,0,0,0,0,0,0,0,0,0,0,0,5.14,5.1344,5.1476,5.1472,5.1472,5.1535,5.1536,5.1537,5.1511,5.1509,5.1507,5.1505,5.1563,5.1567,5.1571,5.1641,0,0,5.1585,5.1587,0,0,0,0,0,0,0,0,5.1396,5.1405,5.1472,5.1472,5.1473,5.1513,5.1509,5.1572,5.1512,5.1496,5.1507,5.1504,5.155,5.1555,5.1571,5.1644,5.1646,5.1585,5.1588,5.159,5.1591,0,0,0,0,0,0,0,5.1392,5.1402,5.15,5.1473,5.1473,5.1467,5.1473,5.1521,5.1534,5.1498,5.1496,5.1503,5.1549,5.1566,5.1572,5.1647,5.1585,5.1589,5.1592,5.1593,5.1782,5.1785,0,0,0,0,0,0,5.1388,5.1399,5.1498,5.1501,5.1429,5.1471,5.1478,5.1503,5.1534,5.1536,5.1505,5.1502,5.156,5.1567,5.1574,5.1658,5.159,5.1594,5.1596,5.178,5.1783,5.1786,0,0,0,0,0,0,5.1386,5.1397,5.1495,5.145,5.1462,5.1476,5.1504,5.1505,5.1522,5.1539,5.1541,5.152,5.1559,5.1568,5.1625,5.166,5.1596,5.16,5.1777,5.1781,5.1784,5.1828,0,0,0,0,0,0,5.1382,5.1397,5.1423,5.145,5.1464,5.1546,5.1506,5.1508,5.153,5.1526,5.1554,5.1557,5.1558,5.1619,5.1629,5.1665,5.1603,5.1774,5.1779,5.1783,5.1824,5.1833,5.1841,0,0,0,0,0,5.1377,5.1433,5.1425,5.1437,5.1498,5.1548,5.1556,5.1556,5.1533,5.156,5.1571,5.1556,5.1654,5.1625,5.1637,5.1674,5.1772,5.1777,5.1783,5.182,5.1831,5.184,0,0,0,0,0,0,5.1408,5.1436,5.1428,5.1494,5.1519,5.1544,5.1578,5.1568,5.16,5.1595,5.1594,5.16,5.166,5.1673,5.1639,5.1744,5.171,5.1718,5.1734,5.1744,5.1753,5.1749,5.1607,0,0,0,0,0,5.1423,5.1462,5.1484,5.154,5.1553,5.1564,5.1585,5.1584,5.1609,5.162,5.1635,5.166,5.1697,5.1721,5.1756,5.1825,5.1831,5.1857,5.1865,5.1872,5.1879,5.1918,5.193,5.1804,5.1803,5.1803,0,0,5.1454,5.1474,5.1498,5.1547,5.1566,5.1607,5.1573,5.1616,5.1646,5.1626,5.1682,5.1694,5.1722,5.1786,5.1815,5.1799,5.1916,5.1879,5.1884,5.1888,5.1925,5.1937,5.1948,5.1807,5.1807,5.1806,0,0,5.153,5.1549,5.1599,5.1619,5.1649,5.1656,5.1668,5.1694,5.1702,5.1758,5.1745,5.178,5.1843,5.1864,5.1883,5.1969,5.1956,5.198,5.2025,5.2063,5.2073,5.2081,5.2113,5.2124,5.1987,5.1987,5.1987,0,5.1564,5.1625,5.1625,5.1671,5.1693,5.1678,5.1728,5.1747,5.1787,5.1803,5.1783,5.1863,5.1881,5.195,5.1972,5.1987,5.2001,5.1977,5.2071,5.208,5.2088,5.2119,5.213,5.199,5.199,5.1989,5.1989,0,5.1666,5.1708,5.1745,5.1785,5.1811,5.1858,5.1866,5.1892,5.1888,5.1897,5.1955,5.1976,5.2015,5.2031,5.2028,5.2101,5.209,5.2071,5.2037,5.2103,5.2132,5.2143,5.1994,5.1993,5.1992,5.1991,0,0,5.1764,5.1804,5.1817,5.1836,5.1869,5.1901,5.1948,5.1987,5.2011,5.2039,5.2078,5.2133,5.2116,5.2138,5.2136,5.217,5.2238,5.2147,5.2148,5.2164,5.2321,5.2336,5.2349,5.223,5.2232,5.2234,5.2319,0,5.1843,5.1927,5.1929,5.2005,5.2045,5.2031,5.2073,5.2097,5.2107,5.2141,5.2152,5.2191,5.2165,5.2178,5.2211,5.2223,5.227,5.2216,5.2267,5.2269,5.2262,5.2364,5.2379,5.2459,5.233,5.2332,5.2333,0,5.1947,5.198,5.2061,5.2089,5.2106,5.2143,5.218,5.2213,5.2241,5.2245,5.227,5.2264,5.2313,5.2277,5.2344,5.2308,5.2328,5.2338,5.2341,5.2346,5.2306,5.2373,5.2484,5.2496,5.2351,5.2349,5.2348,0,5.2012,5.2076,5.2133,5.2149,5.2183,5.221,5.2225,5.225,5.2274,5.2306,5.2322,5.2359,5.2379,5.2408,5.2413,5.2386,5.2481,5.2444,5.2486,5.2486,5.2507,5.2506,5.2624,5.2519,5.2519,5.2519,5.2519,0,5.2101,5.2151,5.2163,5.2198,5.2254,5.2255,5.2311,5.2324,5.2347,5.2385,5.2375,5.241,5.2413,5.245,5.2453,5.2509,5.2518,5.2523,5.2524,5.2525,5.2524,5.2539,5.2534,5.2522,5.2521,5.2521,5.252,0,5.2183,5.2192,5.2254,5.2281,5.2289,5.233,5.2353,5.2387,5.2396,5.2443,5.2455,5.2469,5.2511,5.2519,5.2568,5.2571,5.2638,5.2632,5.2629,5.2628,5.267,5.2667,5.2803,5.2821,5.2703,5.2704,5.2705,0,5.2239,5.2278,5.231,5.2335,5.2352,5.2392,5.2417,5.242,5.2447,5.2482,5.2512,5.2553,5.2587,5.2656,5.267,5.2709,5.2704,5.2749,5.271,5.271,5.2706,5.2705,5.2709,5.2757,5.2758,5.2759,5.276,0,5.234,5.2343,5.2379,5.2418,5.2448,5.2479,5.2507,5.2528,5.2535,5.2565,5.2609,5.2636,5.2687,5.2729,5.2768,5.2783,5.2774,5.2773,5.2785,5.2786,5.2784,5.2787,5.2651,5.277,5.2769,5.2768,5.2767,5.2767,5.2411,5.2445,5.2474,5.2515,5.2538,5.2565,5.2599,5.2612,5.2649,5.2692,5.2692,5.274,5.2768,5.2819,5.2837,5.2875,5.2861,5.2878,5.2882,5.2887,5.2891,5.2777,5.2882,5.2882,5.2881,5.2881,5.2881,0,5.2512,5.253,5.2568,5.2609,5.2642,5.2631,5.2662,5.269,5.2733,5.276,5.2794,5.2845,5.2886,5.2905,5.2945,5.2972,5.2969,5.2983,5.2981,5.2985,5.2901,5.2887,5.2985,5.2985,5.2985,5.2985,5.2985,5.2985,5.2568,5.2626,5.2633,5.2702,5.2719,5.2767,5.2786,5.2812,5.2834,5.2892,5.2926,5.2938,5.2962,5.3004,5.3041,5.3046,5.3061,5.3078,5.308,5.3001,5.2991,5.2981,5.2968,5.3081,5.3081,5.3161,5.3162,5.3163]}]]